Tracking 18844 objects as of 21-Nov-2017
HD Live streaming from Space Station
objects crossing your sky now

SL-12 R/B(2)

Track SL-12 R/B(2) now!


NORAD ID: 37140
Int'l Code: 2010-041D
Perigee: 19,029.8 km
Apogee: 19,188.1 km
Inclination: 64.6 °
Period: 674.6 minutes
Semi major axis: 25479 km
RCS: 0.5114 m2 (medium)
Launch date: September 2, 2010
Source: Commonwealth of Independent States (former USSR) (CIS)
Launch site: TYURATAM MISSILE AND SPACE COMPLEX (TTMTR)

Note: This is a ROCKET BODY
aabbcc
Your satellite tracking list
Your tracking list is empty




NASA's NSSDC Master Catalog

Two Line Element Set (TLE):
1 37140U 10041D   17324.88017154 -.00000024 +00000-0 +00000-0 0  9999
2 37140 064.5925 298.1964 0031076 190.3525 227.6316 02.13454252056230
Source of the keplerian elements: AFSPC